Regional Weather Roundup
Issued by NWS State College, PA

Current Version | Previous Version | Text Only | Print | Product List | Glossary On
Versions: 1 2 3 4 5 6 7 8 9 10 11 12 13 14 15 16 17 18 19 20 21 22 23 24 25 26 27 28 29 30 31 32 33 34 35 36 37 38 39 40 41 42 43 44 45 46 47 48 49 50
000
ASUS41 KCTP 231010
RWRCTP

REGIONAL WEATHER ROUNDUP
NATIONAL WEATHER SERVICE STATE COLLEGE PA
600 AM EDT WED AUG 23 2017

Note: "fair" indicates few or no clouds below 12,000 feet with no
significant weather and/or obstructions to visibility.

* = STATION THAT DOES NOT REPORT PRECIPITATION /E.G. RAIN...SNOW...ETC/
    THUNDER OR FOG.

PAZ002>004-007>009-013>016-020>023-029>032-231100-
WESTERN PENNSYLVANIA

CITY           SKY/WX    TMP DP  RH WIND       PRES   REMARKS
ERIE           CLEAR     67  50  54 W6        29.89S
MEADVILLE      CLEAR     60  55  83 W5        29.93R
FRANKLIN*      MOCLDY    57  54  88 W6        29.93S
NEW CASTLE     FAIR      59  59 100 CALM      29.93R FOG
BEAVER COUNTY  NOT AVBL
BUTLER*        FOG       62  62 100 W3        29.93S VSB 1/4
PITTSBURGH INT CLOUDY    64  63  96 NW5       29.92S
PITTSBURGH     CLOUDY    65  61  87 NW3       29.92R
INDIANA*       FOG       63  63 100 CALM      29.95R VSB 1/4
LATROBE        CLOUDY    64  64 100 CALM      29.93R
WASHINGTON CO* CLOUDY    63  61  94 CALM      29.93R
$$

PAZ004>006-010>012-017>019-024>028-033>037-041-042-045-046-049>053-231100-
CENTRAL PENNSYLVANIA

CITY           SKY/WX    TMP DP  RH WIND       PRES   REMARKS
BRADFORD       FOG       50  50 100 CALM      29.91S VSB 1/4
DUBOIS         PTCLDY    59  56  89 W5        29.91R
CLEARFIELD     FOG       60  60 100 CALM      29.92R VSB 1/4
JOHNSTOWN      CLOUDY    62  59  90 N6        29.94R
ALTOONA        PTCLDY    64  60  87 N6        29.91R
STATE COLLEGE  PTCLDY    64  55  72 NW6       29.90R
WILLIAMSPORT   MOCLDY    64  57  78 CALM      29.85R
SELINSGROVE    PTCLDY    69  64  84 NW6       29.86R
FT INDIANTOWN  MOCLDY    72  65  78 NW6       29.82R
CAPITAL CITY   MOCLDY    73  67  81 W5        29.83R
HARRISBURG     CLOUDY    74  68  81 NW9       29.82R
YORK           CLOUDY    71  71 100 W3        29.83R
$$

PAZ038>040-043-044-047-048-054-055-060>062-067>071-231100-
EASTERN PENNSYLVANIA

CITY           SKY/WX    TMP DP  RH WIND       PRES   REMARKS
SCRANTON       CLOUDY    67  56  67 VRB5      29.86R
MOUNT POCONO   CLOUDY    61  58  90 NW14G22   29.86R
ALLENTOWN      MOCLDY    71  68  90 W6        29.80R
QUAKERTOWN*    CLOUDY    72  72 100 CALM      29.82R
READING        CLOUDY    73  72  96 NW8       29.80R
LANCASTER      LGT RAIN  73  72  96 W7        29.82R
COATESVILLE    MOSUNNY   72  72 100 W3        29.84R
POTTSTOWN      CLOUDY    71  71 100 CALM      29.83R
BLUE BELL      CLOUDY    70  70 100 CALM      29.81R
DOYLESTOWN     MOCLDY    72  71  97 CALM      29.80R
WILLOW GROVE   NOT AVBL
NORTH PHILA    CLOUDY    75  71  87 SW5       29.80R
PHILADELPHIA   CLOUDY    76  71  85 W7        29.80R
$$




USA.gov is the U.S. government's official web portal to all federal, state and local government web resources and services.